Regional Weather Roundup
Issued by NWS Sioux Falls, SD

Home | Current Version | Previous Version | Graphics & Text | Print | Product List | Glossary Off
Versions: 1 2 3 4 5 6 7 8 9 10 11 12 13 14 15 16 17 18 19 20 21 22 23 24 25 26 27 28 29 30 31 32 33 34 35 36 37 38 39 40 41 42 43 44 45 46 47 48 49 50

000
ASUS43 KFSD 020102
RWRFSD

WEATHER ROUNDUP FOR SE SOUTH DAKOTA/SW MINNESOTA/NW IOWA
NATIONAL WEATHER SERVICE SIOUX FALLS SD
800 PM CDT TUE SEP 01 2015

NOTE: "FAIR" INDICATES FEW OR NO CLOUDS BELOW 12,000 FEET WITH NO
SIGNIFICANT WEATHER AND OR OBSTRUCTIONS TO VISIBILITY.


SDZ038>040-050-052>070-020200-
SOUTHEAST SOUTH DAKOTA

CITY           SKY/WX    TMP DP  RH WIND       PRES   REMARKS
BROOKINGS      MOCLDY    72  61  68 SE15      29.89F
CHAMBERLAIN    NOT AVBL
HURON          CLEAR     76  69  79 SE8       29.82S
MADISON        FAIR      73  73 100 E8        29.88S
MITCHELL       CLEAR     75  71  87 SE5       29.83S
SIOUX FALLS    CLOUDY    75  71  87 E5        29.87F
WINNER         FAIR      80  65  59 SE10      29.81F
YANKTON        PTCLDY    81  72  74 SE5       29.82S
$$

MNZ071-072-080-081-089-090-097-098-020200-
SOUTHWEST MINNESOTA

CITY           SKY/WX    TMP DP  RH WIND       PRES   REMARKS
FAIRMONT       MOCLDY    75  66  73 S6        29.91S
JACKSON        PTCLDY    77  72  83 S7        29.92S
LUVERNE        RAIN      77  72  83 CALM      29.90S
MARSHALL       CLOUDY    75  70  83 CALM      29.92R
MONTEVIDEO     CLOUDY    75  73  94 S8G17     29.89S FOG
PIPESTONE      RAIN      75  72  88 NE3       29.92S
REDWOOD FALLS  CLOUDY    77  72  84 S5        29.89R
TRACY          CLOUDY    76  73  89 CALM      29.91R
WINDOM         MOCLDY    79  72  78 CALM      29.92R
WORTHINGTON    MOCLDY    75  70  83 S7        29.91R
$$

IAZ001>003-012>014-020>022-031-032-NEZ013-014-SDZ071-020200-
NORTHWEST IOWA

CITY           SKY/WX    TMP DP  RH WIND       PRES   REMARKS
ESTHERVILLE    CLEAR     75  72  90 S6        29.92R
SIOUX CITY     MOCLDY    81  71  71 SE9       29.86S
SPENCER        PTCLDY    77  71  82 SE8       29.91S HAZE
$$

ABBREVIATIONS USED IN REMARKS
   TC - TEMPERATURE IN CELSIUS
  WCI - WIND CHILL INDEX
   HX - HEAT INDEX
  VSB - VISIBILITY



USA.gov is the U.S. government's official web portal to all federal, state and local government web resources and services.